SCP
0 0 0 0 0 0 -0 -0 -0 -0 -0 0 -0 -0 -0 -0 -0 0 -0 -0 -0 -0 -0 -0 -0 -0 -0 -0 -0 -0 -0 -0 -0 -0 -0 -0 -0 -0 -0 -0 0 -0 -0
-0 -0 0 -0 -0 -0 -0 -0 -0 -0 -0 -0 -0 -0 -0 -0 -0 -0 -0 -0 -0 -0 -0 -0 -0 -0 -0 -0 -0 -0 -0 -0 -0 -0 -0 -0 -0 -0 -0 0 -0 0 -0
-0 -0 -0 -0 -0 -0 -0 -0 -0 -0 -0 -0 -0 -0 -0 -0 -0 -0 -0 -0 -0 -0 -0 -0 -0 -0 -0 -0 -0 -0 -0 -0 -0 -0 -0 -0 -0 -0 0 -0 -0 -0 -0
-0 -0 -0 -0 -0 -0 -0 -0 -0 -0 -0 -0 -0 -0 -0 -0 -0 -0 -0 -0 -0 -0 -0 -0 -0 -0 -0 -0 -0 -0 -0 -0 -0 -0 0 -0 -0 -0 -0 0 0 0 -0
-0 -0 -0 -0 -0 -0 -1 -0 -0 -0 -0 -0 -0 -0 -0 -0 -0 -0 -0 -0 -0 -0 -0 -0 0 -0 -0 -0 -0 -0 -0 -0 -0 -0 0 0 0 0 0 -0 -0 -0 0
-0 -0 -0 -0 -0 -0 -0 -1 -1 -0 -0 -0 -0 -0 -0 -0 -0 -0 -0 -0 -0 -0 0 0 0 0 0 0 0 -0 -0 -0 -0 -0 -0 0 -0 -0 0 0 0 0 0
-0 -0 -0 -0 -0 -0 -0 -0 -1 -0 -0 -0 -0 -0 -0 -0 -0 -0 -0 0 -0 0 0 0 0 0 0 0 0 0 0 0 0 -0 -0 -0 -0 0 0 -0 0 0 0
-0 -0 -0 -0 -0 -0 -0 -0 -0 -0 -0 -0 -0 -0 0 0 0 0 0 -0 -0 0 0 0 0 0 0 0 0 0 -0 -0 -0 -0 -0 0 0 -0 0 -0 0 0 0
-0 -0 -0 -0 -0 -0 -0 -0 -0 -0 -0 -0 -0 -0 0 0 0 0 0 -0 -0 -0 0 0 0 0 0 0 0 0 0 -0 0 -0 -0 -0 -0 -0 -0 0 0 0 0
-0 -0 -0 -0 -0 -0 -0 -0 -0 -0 -0 -0 -0 0 0 0 0 0 -0 -0 -0 -0 -0 0 -0 0 0 0 0 0 0 -0 0 0 -0 -0 -0 -0 0 0 0 0 0
-0 0 -0 -0 -0 -0 -0 -0 -0 -0 -0 -0 -0 -0 0 0 0 0 -0 -0 -0 0 -0 -0 -0 0 0 0 0 -0 -0 0 0 0 0 -0 -0 -0 -0 0 0 0 0
-0 0 0 -0 -0 -0 -0 -0 -0 -0 -0 -0 -0 -0 -0 0 0 0 -0 0 0 0 0 -0 0 0 0 0 0 0 0 0 0 0 -0 -0 -0 -0 0 0 0 0 0
-0 -0 0 0 -0 -0 -0 -0 -0 -0 -0 0 0 -0 0 0 0 0 0 0 -0 -0 -0 -0 -0 -0 0 0 0 0 0 0 0 0 -0 -0 -0 -0 -0 -0 0 -0 0
-0 0 0 0 0 -0 -0 -0 -0 -0 -0 0 0 0 0 0 0 0 0 0 0 -0 0 -0 -0 -0 0 0 0 0 0 0 0 0 -0 -0 -0 -0 -0 -0 0 0 -0
-0 0 -0 0 0 -0 -0 0 0 -0 -0 -0 -0 -0 0 0 -0 0 0 0 0 -0 0 -0 -0 0 0 0 0 0 0 0 0 0 0 -0 -0 -0 -0 -0 0 0 0
0 -0 -0 -0 -0 -0 0 0 0 -0 -0 -0 0 0 0 0 0 -0 -0 0 0 -0 -0 -0 -0 0 0 0 0 0 0 0 0 0 0 0 -0 -0 -0 -0 0 0 0
0 -0 -0 -0 -0 -0 0 0 0 0 0 -0 0 0 0 -0 0 -0 0 0 0 0 -0 -0 -0 -0 -0 0 0 0 0 -0 0 0 -0 0 -0 -0 -0 -0 -0 0 0
0 -0 0 0 -0 -0 0 0 0 0 -0 -0 0 0 0 -0 0 0 0 0 0 0 -0 0 0 -0 0 -0 0 -0 0 0 0 -0 -0 0 0 -0 -0 -0 0 0 0
-0 -0 -0 -0 -0 -0 0 0 0 -0 -0 -0 0 0 0 0 -0 -0 0 0 0 0 0 -0 -0 -0 0 0 0 0 0 0 0 -0 -0 -0 -0 -0 -0 -0 0 0 0
0 -0 0 0 -0 -0 0 0 0 -0 -0 -0 0 0 0 0 -0 -0 0 0 0 0 0 0 -0 -0 0 0 0 -0 -0 0 0 -0 -0 -0 -0 -0 -0 -0 0 0 0
0 -0 -0 -0 -0 -0 -0 0 0 0 -0 0 0 0 0 0 0 -0 0 0 0 0 0 0 0 0 0 0 0 0 0 0 -0 -0 -0 -0 -0 -0 -0 -0 0 -0 0
0 -0 -0 -0 -0 -0 -0 0 0 0 0 0 0 0 -0 0 -0 -0 -0 0 0 0 0 0 0 0 0 -0 -0 -0 -0 -0 -0 -0 -0 -0 -0 -0 -0 -0 -0 0 -0
0 0 -0 -0 -0 -0 -0 -0 -0 -0 0 -0 -0 -0 -0 -0 0 0 0 0 0 0 0 0 -0 0 0 -0 -0 0 0 0 -0 -0 -0 -0 -0 -0 -0 -0 -0 0 -0
-0 -0 -0 -0 -0 -0 -0 0 -0 -0 -0 -0 -0 -0 -0 0 0 0 0 -0 -0 0 0 0 0 0 0 0 0 0 -0 0 0 0 -0 -0 -0 -0 -0 -0 -0 -0 -0
0 0 0 -0 -0 -0 -0 -0 -0 -0 -0 -0 0 -0 0 -0 0 0 -0 -0 -0 -0 0 0 0 0 0 0 -0 0 0 0 0 0 0 0 -0 -0 -0 -0 -0 0 -0
0 -0 -0 -0 -0 -0 -0 -0 -0 -0 -0 -0 -0 0 0 0 -0 -0 0 -0 0 -0 -0 -0 0 0 0 0 0 0 0 0 0 0 0 0 0 0 0 0 0 0 0
Wind_Speed_500mb
51 52 46 45 47 51 49 51 49 48 49 48 47 45 39 38 36 32 30 28 26 24 23 21 18 18 20 19 20 22 24 26 28 29 26 26 26 26 25 27 30 27 29
60 56 48 46 48 52 51 48 47 47 47 45 41 40 37 35 32 27 23 22 19 17 16 15 13 14 14 15 17 20 23 24 27 27 24 24 22 23 25 24 25 26 27
61 60 53 48 50 52 50 44 44 43 42 39 36 34 31 29 26 22 20 16 14 14 14 15 13 12 11 11 14 18 22 23 27 25 22 21 21 22 24 27 23 22 23
61 59 56 51 49 49 46 42 41 39 38 37 35 31 30 25 23 19 15 13 11 10 10 12 9 10 9 9 11 14 20 24 29 24 15 17 21 21 18 25 26 23 22
58 54 57 52 48 46 42 40 39 36 34 37 35 30 27 23 19 16 13 9 7 4 3 4 4 5 6 7 9 16 23 26 24 16 19 29 24 19 19 14 18 24 22
59 54 56 51 46 42 39 37 35 35 34 33 32 29 25 20 16 13 8 6 5 4 4 3 3 3 4 8 11 10 18 21 23 34 34 30 24 12 12 11 5 21 21
53 53 51 51 48 42 38 36 37 36 35 34 32 27 25 21 19 15 11 9 8 10 9 9 9 7 7 15 14 19 21 21 25 32 34 31 34 24 26 7 6 14 22
50 48 52 46 45 40 37 35 36 37 40 37 31 30 22 21 18 13 11 11 10 12 11 12 11 8 10 11 15 23 24 25 32 32 35 31 41 39 35 20 12 15 18
46 46 48 46 40 37 34 33 32 32 32 31 30 26 28 22 19 12 14 12 10 11 11 12 10 9 11 13 18 24 28 29 36 34 28 37 40 41 39 27 22 19 19
46 45 44 46 43 37 34 34 33 31 29 30 26 27 24 16 14 19 16 16 16 16 13 11 10 9 13 13 16 25 26 27 35 28 21 33 30 38 49 43 38 25 25
48 45 45 46 44 39 35 34 30 32 30 33 32 37 28 27 28 25 25 18 21 19 14 9 9 12 9 11 15 20 23 28 31 32 27 28 35 32 48 57 46 30 30
52 49 45 46 44 42 38 33 30 27 33 32 24 35 32 23 24 22 21 24 24 19 16 12 10 13 11 12 14 16 19 21 26 30 25 26 31 35 34 39 54 36 34
50 51 48 45 44 44 40 36 33 20 23 21 22 21 25 24 23 18 18 19 20 17 13 14 14 13 12 11 13 17 15 14 23 24 19 20 27 36 31 34 54 51 43
44 49 48 45 43 43 39 35 25 24 22 21 20 22 26 28 28 19 14 8 11 16 14 14 14 15 14 15 17 17 16 17 21 21 21 22 28 30 33 32 60 65 49
42 44 46 45 43 41 38 31 27 24 21 19 22 25 28 30 30 23 14 10 9 9 12 11 12 13 13 9 8 8 13 16 18 16 22 22 27 23 30 31 60 58 52
40 37 36 42 39 39 39 32 28 26 18 20 21 22 23 25 16 20 13 11 10 10 13 13 13 11 12 12 13 11 16 17 16 16 19 24 25 26 32 38 55 54 51
29 33 28 35 39 39 38 34 31 31 24 22 19 19 20 21 21 20 15 15 12 10 8 10 13 12 7 8 14 17 16 16 13 12 13 16 23 26 32 41 46 57 58
32 33 33 32 34 35 37 35 31 30 29 25 21 21 20 25 23 24 21 17 12 9 11 11 13 14 10 14 12 17 16 16 14 11 11 14 18 23 32 39 44 52 62
23 30 33 33 32 29 29 30 30 30 29 23 23 26 22 22 26 25 24 20 13 9 12 11 4 7 6 10 6 13 15 17 14 11 7 10 17 23 25 32 43 48 57
22 25 27 30 31 28 29 25 27 29 28 26 24 25 29 26 26 27 27 24 20 11 11 11 11 5 10 9 7 14 17 17 17 13 5 8 14 22 24 26 33 41 52
24 21 21 22 24 28 29 27 27 30 29 27 25 24 30 29 28 28 29 32 25 17 12 9 11 10 11 8 8 15 17 17 21 17 11 7 10 17 23 26 23 29 41
17 20 22 21 21 23 23 20 18 21 22 25 25 24 28 29 31 30 31 34 30 25 13 9 9 10 11 9 9 9 9 15 23 22 17 15 12 11 19 20 21 24 27
17 17 13 18 19 20 20 21 22 24 28 24 20 20 24 29 30 28 28 34 32 27 16 12 9 9 6 7 8 10 5 8 21 26 23 20 18 16 14 16 18 20 25
15 14 13 12 17 22 21 26 29 27 24 20 15 14 17 23 28 28 28 34 34 29 21 16 13 10 8 5 4 8 11 8 7 7 23 27 25 24 20 19 16 17 20
17 14 12 16 18 21 25 30 28 32 26 23 19 17 17 21 24 26 26 35 38 33 24 20 21 15 11 8 5 5 9 11 11 8 9 18 30 32 28 27 24 21 18
13 12 14 18 19 25 27 28 29 29 25 26 23 23 21 23 23 28 29 35 39 39 30 26 24 22 15 12 10 9 9 6 6 6 9 12 11 23 36 32 32 30 28
Wind_Direction_500mb
162 154 153 149 149 152 144 144 141 143 144 145 151 154 147 141 133 126 116 112 112 110 110 109 104 99 100 103 99 94 96 93 93 100 99 104 104 109 114 112 106 110 115
157 155 155 150 147 152 152 148 149 148 145 145 148 151 151 148 140 133 123 117 113 109 112 108 105 101 103 105 104 106 105 100 98 97 103 101 106 107 111 118 116 114 116
158 157 157 154 150 152 156 154 156 156 155 150 148 152 155 153 146 141 134 124 115 112 113 105 102 101 104 112 119 120 128 123 112 103 104 107 108 112 114 115 115 118 120
160 159 162 159 156 155 158 159 161 164 165 165 164 162 162 157 153 152 144 133 124 124 112 103 92 92 95 102 126 132 139 147 134 129 94 109 110 99 100 116 120 123 126
162 161 165 165 163 159 160 161 166 169 170 169 169 170 167 173 164 162 156 149 139 152 142 129 118 104 109 109 102 138 155 151 162 203 151 119 126 117 87 85 117 124 132
164 164 167 170 171 170 169 169 172 174 173 176 177 177 180 187 178 181 188 187 199 225 241 244 199 178 162 124 149 184 183 169 171 170 163 157 126 119 109 81 89 140 135
164 165 170 175 177 178 180 180 181 184 184 186 189 192 193 194 192 201 210 228 245 258 257 249 249 222 157 189 189 193 192 182 172 165 176 179 167 184 214 134 168 161 146
166 165 172 180 180 182 182 180 184 188 192 194 191 202 199 200 206 212 232 242 257 264 264 252 249 231 193 212 222 208 201 189 178 173 180 178 173 187 210 190 174 181 176
169 167 171 179 183 184 184 185 185 188 188 196 201 189 194 202 215 218 246 248 261 272 266 252 242 227 215 206 220 216 205 200 190 196 214 208 205 199 204 199 200 202 193
175 172 177 184 187 192 195 199 192 187 183 189 198 200 204 202 227 229 247 263 272 273 268 241 244 227 216 224 233 228 214 198 192 201 215 221 216 193 206 208 213 201 195
181 182 183 189 191 192 196 198 196 194 194 213 209 193 205 223 224 241 248 255 270 273 265 241 237 239 225 238 235 225 219 220 218 236 243 228 222 204 207 207 204 195 191
183 188 189 193 191 191 197 201 195 197 207 216 226 213 228 228 226 245 258 261 263 255 249 247 249 261 236 251 247 237 229 228 225 234 228 217 220 205 205 204 212 200 191
184 190 193 195 194 195 200 199 199 207 214 216 226 239 225 225 239 257 271 274 247 243 253 254 253 256 258 255 254 253 250 238 221 218 214 208 200 203 213 220 208 207 195
189 193 193 198 199 198 201 205 197 206 217 226 236 236 234 233 239 248 262 282 237 238 261 256 246 253 255 259 250 252 243 229 229 220 203 203 206 222 224 214 201 194 194
192 197 202 201 203 204 205 209 203 205 223 238 243 241 238 241 237 232 243 273 257 241 254 262 248 249 253 242 237 235 220 224 227 223 211 210 211 216 197 195 183 195 197
195 197 199 206 206 210 212 213 212 217 234 245 248 243 236 231 229 207 226 250 247 258 269 250 241 243 262 253 263 270 233 226 233 231 227 220 215 212 199 199 200 199 204
202 199 196 202 207 214 216 218 220 221 236 242 247 234 222 219 223 225 229 232 243 261 239 245 236 247 254 273 272 259 236 219 214 226 216 210 219 221 206 202 204 206 206
212 210 206 206 210 213 220 224 232 231 245 233 237 235 225 224 229 228 223 221 237 248 247 258 259 253 263 304 282 220 205 202 211 217 241 238 228 212 209 209 206 209 210
221 216 212 214 218 220 225 229 235 240 237 231 234 237 229 227 224 228 222 220 222 249 243 256 293 299 274 303 254 183 196 204 217 205 243 226 203 192 197 211 210 211 211
214 211 212 217 222 222 229 233 237 236 234 235 240 237 233 234 234 233 233 222 231 235 237 258 295 302 316 314 198 188 200 207 208 199 188 177 191 194 194 199 209 211 212
210 209 211 217 223 222 229 238 242 241 239 243 245 242 235 235 236 236 231 225 227 231 247 254 303 280 299 318 221 218 214 208 193 193 198 182 175 195 197 202 206 211 219
197 203 210 218 228 231 237 242 251 245 249 254 251 246 242 235 241 234 230 233 229 231 246 270 294 312 296 286 236 230 213 213 203 205 209 213 214 203 204 204 203 207 203
190 196 213 213 220 225 229 234 248 249 253 258 264 267 255 243 240 238 241 226 228 230 242 262 270 298 291 258 264 238 256 217 210 218 212 211 218 216 212 209 209 200 201
210 212 218 238 234 233 240 252 259 260 266 267 281 293 269 249 242 245 244 220 219 226 231 249 254 252 285 313 295 232 239 240 225 225 230 218 216 219 218 218 213 209 209
214 224 241 252 255 255 255 260 265 275 279 278 286 290 273 254 253 244 227 219 215 221 230 240 241 243 253 253 266 271 265 246 236 253 246 225 229 226 224 221 226 226 224
221 235 252 261 268 266 266 269 274 283 285 293 290 288 272 258 258 242 232 224 220 220 225 234 236 243 243 249 256 249 268 267 233 299 265 248 243 243 228 225 224 224 226
Wind_Speed_850mb
51 52 46 45 47 51 49 51 49 48 49 48 47 45 39 38 36 32 30 28 26 24 23 21 18 18 20 19 20 22 24 26 28 29 26 26 26 26 25 27 30 27 29
60 56 48 46 48 52 51 48 47 47 47 45 41 40 37 35 32 27 23 22 19 17 16 15 13 14 14 15 17 20 23 24 27 27 24 24 22 23 25 24 25 26 27
61 60 53 48 50 52 50 44 44 43 42 39 36 34 31 29 26 22 20 16 14 14 14 15 13 12 11 11 14 18 22 23 27 25 22 21 21 22 24 27 23 22 23
61 59 56 51 49 49 46 42 41 39 38 37 35 31 30 25 23 19 15 13 11 10 10 12 9 10 9 9 11 14 20 24 29 24 15 17 21 21 18 25 26 23 22
58 54 57 52 48 46 42 40 39 36 34 37 35 30 27 23 19 16 13 9 7 4 3 4 4 5 6 7 9 16 23 26 24 16 19 29 24 19 19 14 18 24 22
59 54 56 51 46 42 39 37 35 35 34 33 32 29 25 20 16 13 8 6 5 4 4 3 3 3 4 8 11 10 18 21 23 34 34 30 24 12 12 11 5 21 21
53 53 51 51 48 42 38 36 37 36 35 34 32 27 25 21 19 15 11 9 8 10 9 9 9 7 7 15 14 19 21 21 25 32 34 31 34 24 26 7 6 14 22
50 48 52 46 45 40 37 35 36 37 40 37 31 30 22 21 18 13 11 11 10 12 11 12 11 8 10 11 15 23 24 25 32 32 35 31 41 39 35 20 12 15 18
46 46 48 46 40 37 34 33 32 32 32 31 30 26 28 22 19 12 14 12 10 11 11 12 10 9 11 13 18 24 28 29 36 34 28 37 40 41 39 27 22 19 19
46 45 44 46 43 37 34 34 33 31 29 30 26 27 24 16 14 19 16 16 16 16 13 11 10 9 13 13 16 25 26 27 35 28 21 33 30 38 49 43 38 25 25
48 45 45 46 44 39 35 34 30 32 30 33 32 37 28 27 28 25 25 18 21 19 14 9 9 12 9 11 15 20 23 28 31 32 27 28 35 32 48 57 46 30 30
52 49 45 46 44 42 38 33 30 27 33 32 24 35 32 23 24 22 21 24 24 19 16 12 10 13 11 12 14 16 19 21 26 30 25 26 31 35 34 39 54 36 34
50 51 48 45 44 44 40 36 33 20 23 21 22 21 25 24 23 18 18 19 20 17 13 14 14 13 12 11 13 17 15 14 23 24 19 20 27 36 31 34 54 51 43
44 49 48 45 43 43 39 35 25 24 22 21 20 22 26 28 28 19 14 8 11 16 14 14 14 15 14 15 17 17 16 17 21 21 21 22 28 30 33 32 60 65 49
42 44 46 45 43 41 38 31 27 24 21 19 22 25 28 30 30 23 14 10 9 9 12 11 12 13 13 9 8 8 13 16 18 16 22 22 27 23 30 31 60 58 52
40 37 36 42 39 39 39 32 28 26 18 20 21 22 23 25 16 20 13 11 10 10 13 13 13 11 12 12 13 11 16 17 16 16 19 24 25 26 32 38 55 54 51
29 33 28 35 39 39 38 34 31 31 24 22 19 19 20 21 21 20 15 15 12 10 8 10 13 12 7 8 14 17 16 16 13 12 13 16 23 26 32 41 46 57 58
32 33 33 32 34 35 37 35 31 30 29 25 21 21 20 25 23 24 21 17 12 9 11 11 13 14 10 14 12 17 16 16 14 11 11 14 18 23 32 39 44 52 62
23 30 33 33 32 29 29 30 30 30 29 23 23 26 22 22 26 25 24 20 13 9 12 11 4 7 6 10 6 13 15 17 14 11 7 10 17 23 25 32 43 48 57
22 25 27 30 31 28 29 25 27 29 28 26 24 25 29 26 26 27 27 24 20 11 11 11 11 5 10 9 7 14 17 17 17 13 5 8 14 22 24 26 33 41 52
24 21 21 22 24 28 29 27 27 30 29 27 25 24 30 29 28 28 29 32 25 17 12 9 11 10 11 8 8 15 17 17 21 17 11 7 10 17 23 26 23 29 41
17 20 22 21 21 23 23 20 18 21 22 25 25 24 28 29 31 30 31 34 30 25 13 9 9 10 11 9 9 9 9 15 23 22 17 15 12 11 19 20 21 24 27
17 17 13 18 19 20 20 21 22 24 28 24 20 20 24 29 30 28 28 34 32 27 16 12 9 9 6 7 8 10 5 8 21 26 23 20 18 16 14 16 18 20 25
15 14 13 12 17 22 21 26 29 27 24 20 15 14 17 23 28 28 28 34 34 29 21 16 13 10 8 5 4 8 11 8 7 7 23 27 25 24 20 19 16 17 20
17 14 12 16 18 21 25 30 28 32 26 23 19 17 17 21 24 26 26 35 38 33 24 20 21 15 11 8 5 5 9 11 11 8 9 18 30 32 28 27 24 21 18
13 12 14 18 19 25 27 28 29 29 25 26 23 23 21 23 23 28 29 35 39 39 30 26 24 22 15 12 10 9 9 6 6 6 9 12 11 23 36 32 32 30 28
Wind_Direction_850mb
162 154 153 149 149 152 144 144 141 143 144 145 151 154 147 141 133 126 116 112 112 110 110 109 104 99 100 103 99 94 96 93 93 100 99 104 104 109 114 112 106 110 115
157 155 155 150 147 152 152 148 149 148 145 145 148 151 151 148 140 133 123 117 113 109 112 108 105 101 103 105 104 106 105 100 98 97 103 101 106 107 111 118 116 114 116
158 157 157 154 150 152 156 154 156 156 155 150 148 152 155 153 146 141 134 124 115 112 113 105 102 101 104 112 119 120 128 123 112 103 104 107 108 112 114 115 115 118 120
160 159 162 159 156 155 158 159 161 164 165 165 164 162 162 157 153 152 144 133 124 124 112 103 92 92 95 102 126 132 139 147 134 129 94 109 110 99 100 116 120 123 126
162 161 165 165 163 159 160 161 166 169 170 169 169 170 167 173 164 162 156 149 139 152 142 129 118 104 109 109 102 138 155 151 162 203 151 119 126 117 87 85 117 124 132
164 164 167 170 171 170 169 169 172 174 173 176 177 177 180 187 178 181 188 187 199 225 241 244 199 178 162 124 149 184 183 169 171 170 163 157 126 119 109 81 89 140 135
164 165 170 175 177 178 180 180 181 184 184 186 189 192 193 194 192 201 210 228 245 258 257 249 249 222 157 189 189 193 192 182 172 165 176 179 167 184 214 134 168 161 146
166 165 172 180 180 182 182 180 184 188 192 194 191 202 199 200 206 212 232 242 257 264 264 252 249 231 193 212 222 208 201 189 178 173 180 178 173 187 210 190 174 181 176
169 167 171 179 183 184 184 185 185 188 188 196 201 189 194 202 215 218 246 248 261 272 266 252 242 227 215 206 220 216 205 200 190 196 214 208 205 199 204 199 200 202 193
175 172 177 184 187 192 195 199 192 187 183 189 198 200 204 202 227 229 247 263 272 273 268 241 244 227 216 224 233 228 214 198 192 201 215 221 216 193 206 208 213 201 195
181 182 183 189 191 192 196 198 196 194 194 213 209 193 205 223 224 241 248 255 270 273 265 241 237 239 225 238 235 225 219 220 218 236 243 228 222 204 207 207 204 195 191
183 188 189 193 191 191 197 201 195 197 207 216 226 213 228 228 226 245 258 261 263 255 249 247 249 261 236 251 247 237 229 228 225 234 228 217 220 205 205 204 212 200 191
184 190 193 195 194 195 200 199 199 207 214 216 226 239 225 225 239 257 271 274 247 243 253 254 253 256 258 255 254 253 250 238 221 218 214 208 200 203 213 220 208 207 195
189 193 193 198 199 198 201 205 197 206 217 226 236 236 234 233 239 248 262 282 237 238 261 256 246 253 255 259 250 252 243 229 229 220 203 203 206 222 224 214 201 194 194
192 197 202 201 203 204 205 209 203 205 223 238 243 241 238 241 237 232 243 273 257 241 254 262 248 249 253 242 237 235 220 224 227 223 211 210 211 216 197 195 183 195 197
195 197 199 206 206 210 212 213 212 217 234 245 248 243 236 231 229 207 226 250 247 258 269 250 241 243 262 253 263 270 233 226 233 231 227 220 215 212 199 199 200 199 204
202 199 196 202 207 214 216 218 220 221 236 242 247 234 222 219 223 225 229 232 243 261 239 245 236 247 254 273 272 259 236 219 214 226 216 210 219 221 206 202 204 206 206
212 210 206 206 210 213 220 224 232 231 245 233 237 235 225 224 229 228 223 221 237 248 247 258 259 253 263 304 282 220 205 202 211 217 241 238 228 212 209 209 206 209 210
221 216 212 214 218 220 225 229 235 240 237 231 234 237 229 227 224 228 222 220 222 249 243 256 293 299 274 303 254 183 196 204 217 205 243 226 203 192 197 211 210 211 211
214 211 212 217 222 222 229 233 237 236 234 235 240 237 233 234 234 233 233 222 231 235 237 258 295 302 316 314 198 188 200 207 208 199 188 177 191 194 194 199 209 211 212
210 209 211 217 223 222 229 238 242 241 239 243 245 242 235 235 236 236 231 225 227 231 247 254 303 280 299 318 221 218 214 208 193 193 198 182 175 195 197 202 206 211 219
197 203 210 218 228 231 237 242 251 245 249 254 251 246 242 235 241 234 230 233 229 231 246 270 294 312 296 286 236 230 213 213 203 205 209 213 214 203 204 204 203 207 203
190 196 213 213 220 225 229 234 248 249 253 258 264 267 255 243 240 238 241 226 228 230 242 262 270 298 291 258 264 238 256 217 210 218 212 211 218 216 212 209 209 200 201
210 212 218 238 234 233 240 252 259 260 266 267 281 293 269 249 242 245 244 220 219 226 231 249 254 252 285 313 295 232 239 240 225 225 230 218 216 219 218 218 213 209 209
214 224 241 252 255 255 255 260 265 275 279 278 286 290 273 254 253 244 227 219 215 221 230 240 241 243 253 253 266 271 265 246 236 253 246 225 229 226 224 221 226 226 224
221 235 252 261 268 266 266 269 274 283 285 293 290 288 272 258 258 242 232 224 220 220 225 234 236 243 243 249 256 249 268 267 233 299 265 248 243 243 228 225 224 224 226